[Iaude] MPEC F120: 2022 FO3 [a=1.19,e=0.20,i=19.0,H=25.9]

mpec at marsden.cfa.harvard.edu mpec at marsden.cfa.harvard.edu
Tue Mar 29 19:59:34 EDT 2022


M.P.E.C. 2022-F120                               Issued 2022 March 29, 23:58 UT

     The Minor Planet Electronic Circulars contain information on unusual
         minor planets and routine data on comets.  They are published
    on behalf of Division F of the International Astronomical Union by the
          Minor Planet Center, Smithsonian Astrophysical Observatory,
                          Cambridge, MA 02138, U.S.A.

             Prepared using the Tamkin Foundation Computer Network

                              MPC at CFA.HARVARD.EDU
            URL https://www.minorplanetcenter.net/    ISSN 1523-6714

                                    2022 FO3                                    


Observations:
     K22F03O* C2022 03 28.43975213 48 11.072+38 10 03.15         20.75wUEF120F52
     K22F03O  C2022 03 28.45057913 48 04.621+38 08 53.79         20.34GVEF120F52
     K22F03O  C2022 03 28.46142813 47 58.119+38 07 43.67         21.01wUEF120F52
     K22F03O  C2022 03 28.54187713 47 09.254+37 58 41.39         20.74GVEF120F52
     K22F03O  C2022 03 28.54268013 47 08.764+37 58 35.93         20.83GVEF120F52
     K22F03O  C2022 03 28.54349013 47 08.246+37 58 29.89         20.39GVEF120F52
     K22F03O 1C2022 03 28.80108 13 45 03.58 +37 25 48.5          21.2 VXEF120033
     K22F03O 1C2022 03 28.80200 13 45 03.07 +37 25 42.1          21.1 VXEF120033
     K22F03O 1C2022 03 28.80292 13 45 02.55 +37 25 35.6          21.5 VXEF120033
     K22F03O 1C2022 03 28.80418 13 45 01.85 +37 25 26.9          21.3 VXEF120033
     K22F03O 1C2022 03 28.80528 13 45 01.21 +37 25 19.6          21.1 VXEF120033
     K22F03O pC2022 03 28.84033313 44 42.03 +37 21 31.3          20.7 GVEF120L01
     K22F03O pC2022 03 28.84379913 44 40.00 +37 21 07.0          20.7 GVEF120L01
     K22F03O pC2022 03 28.84726813 44 37.92 +37 20 42.2          20.8 GVEF120L01
     K22F03O pC2022 03 28.85078013 44 35.85 +37 20 19.1          21.0 GVEF120L01
     K22F03O 1C2022 03 28.86485813 44 26.62 +37 18 31.1                VEF120246
     K22F03O 1C2022 03 28.86561013 44 26.16 +37 18 26.1                VEF120246
     K22F03O KC2022 03 29.06438513 42 23.67 +36 53 46.4                XEF120I93
     K22F03O KC2022 03 29.07661613 42 15.60 +36 52 09.1          20.4 GXEF120I93
     K22F03O 1C2022 03 29.91492 13 33 25.12 +34 45 23.2          20.7 VXEF120033
     K22F03O 1C2022 03 29.91630 13 33 24.08 +34 45 09.4          21.9 VXEF120033
     K22F03O 1C2022 03 29.91769 13 33 23.03 +34 44 55.6          20.9 VXEF120033
     K22F03O 1C2022 03 29.91913 13 33 21.93 +34 44 41.1          20.9 VXEF120033

Observer details:
033 Karl Schwarzschild Observatory, Tautenburg.  Observers S. Melnikov, C.
    Hoegner, U. Laux, F. Ludwig, B. Stecklum.  Measurer B. Stecklum.  1.34-m
    f/3 Schmidt + CCD.
246 Klet Observatory-KLENOT.  Observers M. Tichy, J. Ticha, M. Honkova.
    Measurer M. Tichy.  1.06-m f/2.7 reflector + 2048x2048 CCD.
F52 Pan-STARRS 2, Haleakala.  Observers J. Bulger, T. Lowe, A. Schultz, I.
    Smith, K. Chambers, T. Dukes.  Measurers K. Chambers, S. Chastel, T. de
    Boer, J. Fairlamb, H. Gao, M. Huber, C.-C. Lin, E. Magnier, Y.
    Ramanjooloo, R. Wainscoat, R. Weryk.  1.8-m Ritchey-Chretien + CCD.
I93 St Pardon de Conques.  Observer F. Losse.  0.40-m f/3.7 reflector + CCD.
L01 Visnjan Observatory, Tican.  Observers K. Korlevic, I. Lyon.  Measurer K.
    Korlevic.  1.0-m f/2.9 reflector + CCD.

Orbital elements:
2022 FO3                                                 Earth MOID = 0.0167 AU
Epoch 2022 Jan. 21.0 TT = JDT 2459600.5                 Veres                   
M 268.63797              (2000.0)            P               Q                  
n   0.76094937     Peri.  232.85554     -0.41698970     +0.90588948             
a   1.1882255      Node    13.12218     -0.69563670     -0.26564483             
e   0.1998593      Incl.   19.03731     -0.58498647     -0.32984401             
P   1.30           H   25.95          G   0.15           U   7                  
Residuals in seconds of arc
220328 F52  0.3-  0.0     220328 033  0.1+  0.4+    220328 246  2.7-  0.2+
220328 F52  0.1-  0.0     220328 033  0.2+  0.4+    220329 I93  0.2+  0.7+
220328 F52  0.1+  0.1+    220328 033  0.1-  0.6+    220329 I93  0.3-  0.8+
220328 F52  0.3+  0.0     220328 L01  0.2+  0.1-    220329 033  0.1-  0.0
220328 F52  0.3+  0.1+    220328 L01  0.3+  0.2-    220329 033  0.0   0.0
220328 F52  0.0   0.2-    220328 L01  0.1-  0.8-    220329 033  0.1+  0.1+
220328 033  0.0   0.6+    220328 L01  0.0   0.6+    220329 033  0.0   0.0
220328 033  0.1+  0.5+    220328 246  2.5-  0.1-

Ephemeris:
2022 FO3                 a,e,i = 1.19, 0.20, 19                  q = 0.9507
Date    TT    R. A. (2000) Decl.     Delta      r    Elong.  Phase     V
2022 02 27    14 29 55.4 +45 59 57   0.2396  1.1237   118.3    50.9    25.0
...
2022 03 14    14 32 38.0 +45 58 46   0.1426  1.0763   122.0    51.6    23.8
...
2022 03 22    14 20 20.4 +44 08 11   0.09092 1.0523   126.1    49.9    22.7
...
2022 03 28    13 51 42.8 +38 54 51   0.05282 1.0352   133.8    44.1    21.3
2022 03 29    13 43 02.2 +37 02 40   0.04668 1.0325   136.3    41.9    21.0
2022 03 30    13 32 19.0 +34 32 01   0.04066 1.0298   139.4    39.1    20.6
...
2022 04 05    10 41 51.7 -25 42 06   0.01730 1.0140   142.6    36.8    18.7
...
2022 04 13    05 10 03.4 -58 00 00   0.05671 0.9951    80.9    95.9    23.1
...
2022 04 28    03 48 46.2 -54 02 26   0.1490  0.9674    70.6   101.1    25.4

M. P. C. Staff               (C) Copyright 2022 MPC           M.P.E.C. 2022-F120




More information about the Iaude mailing list